Location: Newark
(47.5833°N, 8.1500°E)
Time: 23:47:56
(UTC+00:00)

Vanguard 1 - Pass Details

Date: 28 October 2020
Orbit: 650 x 3833 km, 34.2° (Epoch: 29 November)

Event Time Altitude Azimuth Distance (km) Brightness Sun altitude
Rises 18:53:29 0° 279° (W) 7,467 15.9 -27.1°
Reaches altitude 10° 19:01:07 10° 266° (W) 5,910 14.9 -28.3°
Maximum altitude 19:10:57 19° 230° (SW) 4,305 13.6 -30.0°
Drops below altitude 10° 19:18:12 10° 192° (SSW) 4,161 13.2 -31.1°
Enters shadow 19:21:40 - 176° (S) 4,561 13.3 -31.7°
Sets 19:22:14 0° 174° (S) 4,654 - -31.8°
